Total_Precipitation_Accumulation
0.50 0.79 1.06 1.11 1.14 1.04 0.87 0.84 0.87 0.82 0.75 0.82 0.84 0.87 0.90 0.89 0.92 0.84 0.67 0.64 0.65 0.64 0.66 0.67 0.70 0.75 0.77 0.77 0.75 0.74 0.79 0.86 0.98 1.19 1.47 1.89 2.09 2.19 2.15 2.15 2.06 1.83 1.61 1.61
0.62 0.64 0.53 0.59 0.64 0.73 0.73 0.79 0.80 0.75 0.66 0.68 0.66 0.69 0.69 0.67 0.62 0.59 0.53 0.49 0.53 0.55 0.64 0.61 0.59 0.61 0.66 0.65 0.68 0.79 0.78 0.82 0.93 1.19 1.47 1.80 2.12 2.16 2.16 2.16 2.12 2.00 1.86 1.83
0.54 0.47 0.43 0.54 0.61 0.67 0.69 0.75 0.74 0.79 0.75 0.66 0.63 0.70 0.69 0.61 0.51 0.46 0.43 0.42 0.44 0.44 0.52 0.56 0.55 0.54 0.59 0.57 0.54 0.65 0.75 0.86 1.11 1.40 1.67 1.83 2.07 2.14 2.17 2.12 2.14 2.17 2.10 2.00
0.58 0.44 0.43 0.55 0.55 0.55 0.74 0.52 0.48 0.55 0.81 0.87 0.65 0.81 0.66 0.55 0.57 0.50 0.44 0.41 0.41 0.43 0.44 0.45 0.50 0.51 0.49 0.47 0.44 0.51 0.62 0.85 1.21 1.55 1.77 1.98 2.30 2.34 2.24 2.23 2.19 2.20 2.22 2.20
0.56 0.41 0.43 0.49 0.42 0.40 0.54 0.44 0.44 0.49 0.67 0.73 0.56 0.59 0.59 0.53 0.57 0.56 0.50 0.47 0.43 0.39 0.36 0.37 0.39 0.41 0.43 0.47 0.47 0.51 0.67 0.93 1.24 1.47 1.73 2.07 2.27 2.33 2.41 2.29 2.24 2.24 2.28 2.29
0.47 0.34 0.35 0.38 0.34 0.33 0.38 0.48 0.54 0.55 0.67 0.72 0.40 0.47 0.59 0.50 0.42 0.44 0.46 0.45 0.40 0.36 0.34 0.37 0.39 0.41 0.43 0.46 0.53 0.64 0.81 0.98 1.24 1.45 1.69 1.89 2.09 2.22 2.32 2.37 2.27 2.23 2.29 2.37
0.46 0.36 0.28 0.26 0.36 0.36 0.39 0.69 0.94 0.93 0.93 0.73 0.33 0.45 0.58 0.41 0.31 0.33 0.37 0.40 0.39 0.40 0.43 0.48 0.50 0.58 0.66 0.68 0.72 0.82 0.95 1.10 1.24 1.37 1.52 1.60 1.74 1.89 1.89 2.04 2.09 2.19 2.20 2.22
0.42 0.40 0.25 0.22 0.29 0.37 0.35 0.54 0.89 0.95 0.80 0.63 0.47 0.66 0.64 0.42 0.35 0.35 0.36 0.42 0.44 0.51 0.58 0.69 0.77 0.88 0.98 0.98 1.00 1.07 1.12 1.15 1.20 1.28 1.35 1.41 1.48 1.58 1.61 1.61 1.60 1.76 1.90 1.91
0.39 0.37 0.19 0.20 0.24 0.30 0.34 0.41 0.47 0.61 0.53 0.55 0.55 0.67 0.63 0.45 0.43 0.43 0.45 0.50 0.58 0.75 0.84 0.94 1.07 1.13 1.12 1.13 1.10 1.13 1.17 1.16 1.16 1.22 1.23 1.16 1.17 1.26 1.35 1.35 1.41 1.44 1.48 1.46
0.37 0.40 0.24 0.20 0.27 0.27 0.31 0.42 0.56 0.85 0.94 0.82 0.67 0.78 0.78 0.61 0.51 0.48 0.55 0.66 0.83 1.07 1.20 1.32 1.45 1.40 1.34 1.34 1.39 1.30 1.21 1.15 1.12 1.14 1.19 1.11 1.10 1.16 1.17 1.13 1.19 1.17 1.14 1.12
0.30 0.45 0.36 0.25 0.26 0.28 0.34 0.47 0.63 0.90 0.99 1.15 1.19 1.22 0.94 0.75 0.69 0.78 0.91 1.03 1.21 1.45 1.60 1.69 1.72 1.65 1.48 1.36 1.36 1.32 1.20 1.09 1.00 1.00 1.09 1.13 1.08 1.11 1.12 1.09 1.04 1.00 0.97 0.99
0.28 0.45 0.45 0.28 0.22 0.26 0.43 0.61 0.81 1.26 1.24 1.11 1.30 1.43 1.04 0.85 0.84 0.87 0.96 1.14 1.34 1.44 1.51 1.55 1.51 1.52 1.42 1.32 1.23 1.22 1.13 0.97 0.93 0.98 1.03 1.09 1.00 0.98 1.03 1.01 1.05 0.96 0.87 0.84
0.37 0.53 0.66 0.56 0.50 0.48 0.58 0.64 0.74 0.90 1.11 1.20 1.40 1.56 1.09 0.87 0.85 0.89 1.02 1.11 1.15 1.14 1.23 1.31 1.35 1.25 1.20 1.15 1.09 1.21 1.23 1.10 1.07 1.10 1.20 1.15 1.02 1.00 1.02 0.97 1.03 0.96 0.90 0.86
0.43 0.50 0.61 0.74 0.72 0.69 0.73 0.64 0.59 0.76 1.03 1.08 1.15 1.24 1.00 0.90 0.86 0.84 0.92 0.97 1.03 1.05 1.08 1.10 1.15 1.09 1.11 1.07 1.04 1.17 1.21 1.21 1.26 1.32 1.34 1.24 1.12 1.02 0.97 0.94 0.97 0.95 0.94 0.93
0.37 0.37 0.32 0.33 0.32 0.40 0.61 0.71 0.62 0.65 0.76 1.02 0.92 0.80 0.79 0.76 0.79 0.79 0.83 0.85 0.86 0.92 0.91 0.85 0.82 0.83 0.89 0.89 0.84 0.91 1.01 1.09 1.21 1.27 1.23 1.18 1.07 0.93 0.86 0.88 0.87 0.91 0.97 0.96
0.29 0.27 0.21 0.17 0.16 0.26 0.51 0.61 0.61 0.60 0.60 0.63 0.57 0.56 0.47 0.46 0.51 0.56 0.62 0.61 0.63 0.69 0.68 0.65 0.61 0.60 0.64 0.57 0.59 0.63 0.74 0.90 1.09 1.17 1.10 0.99 0.92 0.91 0.83 0.79 0.77 0.80 0.83 0.86
0.26 0.30 0.33 0.25 0.19 0.28 0.51 0.52 0.55 0.42 0.30 0.29 0.37 0.38 0.32 0.32 0.41 0.46 0.55 0.57 0.53 0.56 0.57 0.58 0.56 0.51 0.54 0.49 0.51 0.59 0.67 0.81 0.91 0.94 0.89 0.81 0.79 0.77 0.70 0.68 0.70 0.75 0.77 0.81
0.22 0.34 0.47 0.39 0.37 0.58 0.69 0.54 0.47 0.39 0.24 0.17 0.20 0.24 0.25 0.28 0.35 0.38 0.44 0.53 0.49 0.45 0.47 0.52 0.53 0.50 0.52 0.56 0.59 0.69 0.75 0.76 0.79 0.84 0.85 0.79 0.73 0.68 0.64 0.61 0.63 0.74 0.76 0.74
0.24 0.36 0.52 0.50 0.52 0.55 0.52 0.37 0.35 0.44 0.42 0.20 0.16 0.18 0.19 0.22 0.29 0.30 0.32 0.37 0.37 0.32 0.29 0.30 0.33 0.35 0.41 0.45 0.50 0.52 0.55 0.56 0.58 0.63 0.69 0.66 0.59 0.61 0.65 0.62 0.67 0.71 0.70 0.72
0.37 0.39 0.56 0.57 0.58 0.62 0.44 0.21 0.18 0.34 0.58 0.26 0.13 0.12 0.11 0.15 0.26 0.26 0.21 0.22 0.22 0.21 0.19 0.17 0.18 0.20 0.23 0.28 0.40 0.45 0.43 0.37 0.37 0.40 0.46 0.49 0.47 0.50 0.57 0.65 0.72 0.70 0.66 0.71
0.34 0.40 0.52 0.65 0.75 0.80 0.54 0.27 0.22 0.48 0.59 0.26 0.12 0.09 0.10 0.12 0.15 0.17 0.16 0.17 0.15 0.15 0.16 0.17 0.16 0.16 0.20 0.25 0.29 0.33 0.38 0.34 0.33 0.34 0.36 0.38 0.39 0.42 0.50 0.55 0.54 0.54 0.57 0.63
0.46 0.58 0.68 0.81 1.02 1.12 0.70 0.47 0.47 0.44 0.28 0.18 0.12 0.10 0.11 0.13 0.14 0.13 0.14 0.15 0.11 0.11 0.13 0.13 0.14 0.17 0.22 0.23 0.23 0.24 0.27 0.27 0.30 0.30 0.33 0.33 0.31 0.31 0.33 0.38 0.42 0.44 0.47 0.49
0.45 0.71 0.89 0.87 0.89 0.77 0.55 0.47 0.38 0.31 0.25 0.17 0.16 0.14 0.13 0.13 0.13 0.13 0.12 0.12 0.11 0.10 0.10 0.12 0.17 0.21 0.24 0.24 0.21 0.21 0.22 0.25 0.30 0.31 0.31 0.31 0.30 0.29 0.30 0.34 0.37 0.41 0.45 0.49
0.27 0.33 0.40 0.41 0.41 0.37 0.31 0.28 0.25 0.22 0.21 0.17 0.14 0.15 0.17 0.16 0.15 0.14 0.13 0.13 0.13 0.11 0.12 0.13 0.18 0.21 0.24 0.23 0.24 0.25 0.24 0.24 0.26 0.27 0.28 0.29 0.30 0.31 0.31 0.34 0.38 0.44 0.45 0.41
0.22 0.22 0.24 0.24 0.20 0.21 0.20 0.20 0.20 0.20 0.16 0.13 0.12 0.13 0.17 0.18 0.16 0.14 0.15 0.17 0.16 0.14 0.13 0.14 0.17 0.21 0.23 0.23 0.25 0.27 0.26 0.24 0.24 0.26 0.26 0.26 0.28 0.30 0.31 0.28 0.30 0.36 0.39 0.37
0.18 0.24 0.25 0.20 0.13 0.15 0.18 0.16 0.16 0.17 0.15 0.13 0.14 0.16 0.16 0.14 0.13 0.14 0.14 0.19 0.20 0.16 0.15 0.16 0.17 0.20 0.21 0.21 0.26 0.28 0.31 0.29 0.27 0.25 0.25 0.26 0.26 0.29 0.29 0.27 0.28 0.30 0.31 0.35